Location: *
(48.8489°N, 2.3218°E)
Time: 05:47:46
(UTC+00:00)

COSMOS 2406 - Pass Details

Date: 23 August 2019
Orbit: 843 x 864 km, 71.0° (Epoch: 14 September)

Event Time Altitude Azimuth Distance (km) Brightness Sun altitude
Rises 20:36:49 0° 212° (SSW) 3,396 6.3 -15.9°
Reaches altitude 10° 20:39:15 10° 214° (SW) 2,468 5.6 -16.2°
Maximum altitude 20:44:55 75° 299° (WNW) 887 3.4 -16.9°
Drops below altitude 10° 20:50:40 10° 26° (NNE) 2,498 5.9 -17.6°
Sets 20:53:09 0° 28° (NNE) 3,442 6.6 -17.9°
